Showing default

OPS 9381 (GGTS), 2207

Orbit data source: Space-Track

OPS 9381 (GGTS), 2207 is a payload satellite owned by USAF SSD (US) in GEO that was launched on Thu, 16 Jun 1966 UTC via a TITAN IIIC launch vehicle from the Air Force Eastern Test Range (AFETR). Payload-class satellites include a variety of spacecraft equipped with specific instruments for various scientific and technological missions. These include communications satellites like Starlink; space stations such as the ISS; scientific satellites like the Hubble; Earth observation satellites from companies like Planet Labs, Umbra, and HawkEye 360; GPS; miniature CubeSats for education and research; and military/defense satellites.

Loading next visibility...
Identifier
2207, 1966-053A
Orbit
GEO
Country
Flag of USUS
Related business
Manufacturer
GE/MSVD
Mission
Non-operational spacecraft
Bus & Motor
GGTS, Unknown motor
Mass
47 kg wet, 47 kg dry
Launch date (UTC)
1966-06-16 (59 years ago)
Launch vehicle
TITAN IIIC
Launch site
Air Force Eastern Test Range (AFETR)
Object type
Payload
Rocket body
Debris
Shape & HBR
Unknown
Radar Cross Section
Medium (>0.1 m² and <1 m²)

Expand to show TLE details & history
Last TLE update: 14 hours ago

TLE from 14 hours ago
0 OPS 9381 (GGTS)
1 02207U 66053A   25303.32138356 -.00000104  00000-0  00000-0 0  9991
2 02207   8.2264  45.5674 0030337 226.2757 127.1086  1.08011473233472
Epoch: 2025-10-30T07:42Z
TLE epoch observation values (Epoch: 2025-10-30T07:42:47.539Z)
Latitude
-0.90105°
Longitude
-115.3201°
Altitude
33,820.912 km
Speed
3.146 km/s
True Right ascension
02h 37m 02s
True Declination
0° 54' 00"
Sunlit
Object was in daylight at epoch
Visualization orbit readout
Latitude
Unknown
Longitude
Unknown
Altitude
Unknown
Speed
Unknown
Apparent Right ascension
Unknown
Apparent Declination
Unknown
Sunlit
N/A
Visualization observer readout
Local Sidereal Time
17:22:28
Azimuth
Unknown
Elevation
Unknown
Doppler factor
Unknown
Orbital elements
Apogee altitude
33,870.319 km
Perigee altitude
33,626.854 km
Semi-major axis
40,126.723 km
Eccentricity
0.00303
Inclination
8.2264°
RAAN
45.5674°
Arg. of periapsis
226.2757°
True anomaly
127.3852°
Mean anomaly
127.1086°
Eccentric anomaly
127.24697°
Mean motion
0.27002 °/min
Orbital period
1,333.24 mins
BSTAR
0
Loading maneuver chart data...
Computing Atmospheric mass density...
Loading historical data...
Loading historical data...
Loading historical data...
Loading historical data...
Loading historical data...
Loading historical data...
Loading historical data...

Documentation

Showing up to 5 results
|